BEIDOU-3 G1

Last updated on Tue Oct 08 2024 00:02:41 GMT+0000 (Coordinated Universal Time)

1 43683U 18085A 24281.56096718 -.00000266 00000+0 00000+0 0 9998 2 43683 2.4633 105.4795 0002719 27.9367 225.2438 1.00276396 21865
UTC large
Height (km)
Speed (km/s)
/
Latitude / Longitude
Inclination (degrees)
Orbital Period (minutes)
Azimuth
Elevation
Range (km)
Doppler Factor

Next 0 passes for location: London (51.5072 / 0.1276)

Sorry there are no passes over London.